[[{"header":{"parameterUnit":"m.s-1","parameterCategory":1,"la1":30.2991,"la2":30.254,"lo1":-89.0895,"lo2":-89.0444,"dy":0.0017,"dx":0.0017,"nx":28,"ny":28,"refTime":"2024-05-10T03:00:00:Z","depth":0,"parameterNumber":2,"parameterNumberName":"U-component_of_WINDS"},"data":[0,0,0,0,0,0,0,0,0,0,0,0,0,0,0,0,0,0,0,0,0,0,0,0,0,0,0,0,0,0,0,0,0,0,0,0,0,0,0,0,0,0,0,0,0,0,0,0,0,0,0,0,0,0,0,0,0,0,0.7617,0.7618,0,0.7771,0.7773,0.7774,0.7812,0.7811,0.781,0.7809,0.7978,0.7983,0.7989,0,0,0,0,0,0,0,0,0,0,0,0,0,0.7365,0.737,0.7616,0.7618,0.762,0.777,0.7773,0.7775,0.7812,0.7811,0.781,0.7809,0.7976,0.7983,0.7989,0,0,0,0,0,0,0,0,0,0,0,0,0,0.7493,0.7371,0.7616,0.7657,0.7662,0.777,0.7773,0.7775,0.7813,0.7811,0.7809,0.7808,0.7974,0.7982,0.799,0.8072,0,0,0.8015,0.8019,0,0,0,0,0,0,0,0,0.7485,0.7502,0.7649,0.7654,0.766,0.777,0.7746,0.7875,0.7813,0.7756,0.7809,0.7807,0.7911,0.7924,0.7957,0.808,0.8087,0.8016,0.8021,0.8025,0.8027,0,0,0,0,0,0,0,0.7477,0.7496,0.7678,0.7651,0.7658,0.7671,0.7687,0.7771,0.7841,0.7761,0.7764,0.7781,0.7914,0.7949,0.7961,0.809,0.8016,0.8023,0.8028,0.8031,0.829,0.8292,0,0,0,0,0,0,0.7459,0.7488,0.7673,0.7682,0.7567,0.7677,0.7695,0.7737,0.784,0.7854,0.7782,0.7782,0.7936,0.7952,0.7967,0.8071,0.8024,0.8032,0.8037,0.8288,0.8291,0.8293,0,0,0,0,0,0,0.7454,0.7475,0.7667,0.7586,0.7611,0.7683,0.7729,0.7741,0.7776,0.7856,0.787,0.7804,0.7935,0.7956,0.8045,0.8078,0.8036,0.8043,0.8286,0.8289,0.8292,0.8278,0,0,0,0,0,0,0.7446,0.7473,0.7502,0.7586,0.7615,0.7739,0.7731,0.7745,0.7788,0.779,0.788,0.7894,0.7936,0.8033,0.8054,0.8088,0.805,0.8283,0.8287,0.8291,0.8276,0.828,0.8284,0,0,0,0,0,0.7437,0.7494,0.7503,0.7525,0.7653,0.774,0.7757,0.7801,0.7791,0.7822,0.7874,0.7891,0.807,0.8042,0.8065,0.8103,0.8282,0.8286,0.8291,0.8275,0.828,0.8284,0,0,0,0,0,0,0.7415,0.7506,0.7517,0.7602,0.7663,0.7746,0.7787,0.7805,0.7872,0.7871,0.7926,0.7946,0.8033,0.8077,0.8043,0.8189,0.8176,0.8186,0.8156,0.8162,0.8165,0.8154,0.8057,0,0,0,0,0,0.7419,0.7479,0.7557,0.7625,0.7654,0.7715,0.7755,0.7783,0.785,0.7877,0.7935,0.8002,0.8074,0.812,0.8191,0.8283,0.8305,0.8321,0.8324,0.8327,0.8335,0.8389,0.8398,0.8307,0.8307,0.8307,0,0,0.743,0.7487,0.7523,0.7622,0.7672,0.7737,0.7737,0.7805,0.7855,0.7889,0.7976,0.8021,0.81,0.8191,0.8235,0.8231,0.8365,0.8333,0.8334,0.8341,0.8395,0.8403,0.8411,0.831,0.831,0.8309,0,0,0.7483,0.7531,0.7594,0.7644,0.7719,0.7759,0.7774,0.7855,0.7886,0.7973,0.8001,0.8063,0.8184,0.8239,0.8284,0.8359,0.8378,0.838,0.8401,0.8453,0.8461,0.8467,0.8496,0.8505,0.8388,0.8388,0.8388,0,0.7488,0.7583,0.7624,0.7691,0.7735,0.7766,0.7831,0.7879,0.7975,0.8006,0.8,0.8154,0.8209,0.8315,0.8333,0.8367,0.8389,0.8371,0.8455,0.8462,0.8469,0.8497,0.8508,0.8388,0.8388,0.8388,0.8388,0,0.7586,0.7652,0.7694,0.7782,0.7831,0.7897,0.7952,0.7998,0.8022,0.8064,0.8155,0.8222,0.8307,0.8334,0.836,0.8445,0.844,0.8444,0.8433,0.8477,0.8504,0.8515,0.8388,0.8388,0.8388,0.8388,0,0,0.7629,0.7739,0.7754,0.7795,0.7881,0.7934,0.8003,0.8083,0.8122,0.8188,0.8249,0.8351,0.8355,0.8405,0.8438,0.8483,0.8541,0.8482,0.8485,0.8492,0.8641,0.8638,0.8649,0.8553,0.8556,0.8557,0.8635,0,0.7694,0.7813,0.7854,0.7955,0.8017,0.8048,0.8109,0.817,0.8212,0.8274,0.8322,0.8394,0.8393,0.8424,0.847,0.8523,0.8572,0.8519,0.8614,0.8617,0.8594,0.8663,0.866,0.873,0.8645,0.8647,0.8649,0,0.7784,0.7848,0.7954,0.8033,0.8061,0.8114,0.8191,0.8249,0.8321,0.8349,0.8404,0.8433,0.851,0.8494,0.8603,0.8566,0.8608,0.8641,0.8644,0.8656,0.8636,0.8678,0.8753,0.8764,0.8665,0.8664,0.8663,0,0.7807,0.7919,0.7998,0.8032,0.8126,0.8162,0.8204,0.8273,0.8319,0.8388,0.8419,0.8498,0.8541,0.8603,0.8654,0.8636,0.8759,0.8746,0.8787,0.8786,0.8812,0.881,0.8896,0.8837,0.8837,0.8836,0.8836,0,0.7875,0.7939,0.8009,0.8057,0.8132,0.8179,0.8252,0.8296,0.8358,0.8418,0.8451,0.8508,0.857,0.8637,0.8678,0.8763,0.8782,0.8809,0.882,0.8807,0.8803,0.8836,0.8833,0.8839,0.8839,0.8838,0.8838,0,0.7912,0.7961,0.8049,0.813,0.8152,0.8203,0.8274,0.8325,0.8368,0.8444,0.8465,0.8534,0.8613,0.8669,0.8773,0.8801,0.8893,0.8903,0.8868,0.8873,0.8911,0.8907,0.9021,0.904,0.8967,0.8968,0.8968,0,0.7952,0.8002,0.8088,0.8129,0.8169,0.8235,0.8282,0.8332,0.8379,0.8465,0.8506,0.8587,0.8654,0.8781,0.8843,0.8923,0.8935,0.897,0.8948,0.8934,0.8938,0.8934,0.8941,0.8973,0.8974,0.8974,0.8975,0,0.8019,0.8041,0.8105,0.8178,0.8231,0.8292,0.8354,0.8386,0.8448,0.8501,0.858,0.8632,0.8737,0.8818,0.8904,0.8951,0.8975,0.8981,0.8995,0.8983,0.8961,0.8975,0.8878,0.8978,0.8978,0.8978,0.8978,0.8977,0.8061,0.8107,0.8174,0.8245,0.8296,0.8353,0.8404,0.8452,0.8519,0.8605,0.8632,0.8715,0.8789,0.8906,0.8954,0.9023,0.9022,0.9041,0.9047,0.9051,0.9051,0.8949,0.9039,0.9039,0.9039,0.9039,0.9039,0,0.813,0.8175,0.8239,0.8323,0.8379,0.8393,0.8462,0.8509,0.8581,0.8646,0.8711,0.8804,0.8883,0.8951,0.9034,0.9076,0.9089,0.9097,0.9095,0.9106,0.9047,0.9027,0.9085,0.9085,0.9085,0.9085,0.9085,0.9085,0.8173,0.8252,0.8282,0.8389,0.8435,0.8514,0.8552,0.8606,0.8658,0.8759,0.8824,0.8866,0.8934,0.9022,0.9097,0.9115,0.9145,0.915,0.9171,0.9115,0.911,0.9105,0.9086,0.9156,0.9156,0.9225,0.9225,0.9226]},{"header":{"parameterUnit":"m.s-1","parameterCategory":1,"la1":30.2991,"la2":30.254,"lo1":-89.0895,"lo2":-89.0444,"dy":0.0017,"dx":0.0017,"nx":28,"ny":28,"refTime":"2024-05-10T03:00:00:Z","depth":0,"parameterNumber":3,"parameterNumberName":"V-component_of_WINDS"},"data":[0,0,0,0,0,0,0,0,0,0,0,0,0,0,0,0,0,0,0,0,0,0,0,0,0,0,0,0,0,0,0,0,0,0,0,0,0,0,0,0,0,0,0,0,0,0,0,0,0,0,0,0,0,0,0,0,0,0,1.8931,1.8933,0,1.9123,1.9125,1.9127,1.9092,1.9088,1.9085,1.9082,1.9277,1.9285,1.9294,0,0,0,0,0,0,0,0,0,0,0,0,0,1.8527,1.8534,1.8931,1.8933,1.8935,1.9123,1.9125,1.9128,1.9093,1.9088,1.9084,1.908,1.9274,1.9284,1.9294,0,0,0,0,0,0,0,0,0,0,0,0,0,1.8709,1.8537,1.893,1.894,1.8943,1.9122,1.9125,1.9128,1.9093,1.9088,1.9083,1.9078,1.9271,1.9283,1.9296,1.9476,0,0,1.9334,1.934,0,0,0,0,0,0,0,0,1.8699,1.8724,1.8936,1.894,1.8943,1.9078,1.9054,1.9245,1.9095,1.9036,1.9082,1.9076,1.9215,1.9232,1.9279,1.9485,1.9494,1.9335,1.9343,1.9348,1.9352,0,0,0,0,0,0,0,1.8686,1.8715,1.9007,1.894,1.8944,1.8933,1.8953,1.909,1.9152,1.9041,1.9039,1.9062,1.9216,1.9267,1.9283,1.9496,1.9335,1.9346,1.9354,1.9359,1.9852,1.9857,0,0,0,0,0,0,1.8671,1.8705,1.9,1.9012,1.8806,1.8945,1.8967,1.904,1.915,1.9162,1.9066,1.906,1.9248,1.9269,1.929,1.9504,1.9348,1.936,1.9367,1.9846,1.9853,1.9859,0,0,0,0,0,0,1.8662,1.8697,1.8993,1.8858,1.8895,1.8957,1.9039,1.9047,1.9098,1.917,1.918,1.9108,1.9245,1.9272,1.9428,1.951,1.9366,1.9377,1.984,1.9848,1.9856,1.9935,0,0,0,0,0,0,1.8651,1.8695,1.8766,1.886,1.8902,1.913,1.9044,1.9054,1.912,1.9113,1.9211,1.9223,1.9243,1.941,1.9441,1.9525,1.9387,1.9833,1.9844,1.9853,1.9925,1.9945,1.9962,0,0,0,0,0,1.8637,1.8782,1.877,1.8806,1.8993,1.9135,1.9159,1.918,1.9127,1.9197,1.9242,1.9219,1.9496,1.9426,1.9461,1.955,1.9828,1.984,1.9853,1.9917,1.9941,1.9961,0,0,0,0,0,0,1.8697,1.8795,1.8782,1.8963,1.9041,1.9129,1.9219,1.9206,1.9301,1.929,1.9311,1.9334,1.9491,1.9536,1.9456,1.9726,1.9654,1.9674,1.9691,1.9714,1.9732,1.9717,1.9397,0,0,0,0,0,1.8731,1.884,1.8919,1.907,1.9109,1.9157,1.922,1.9229,1.931,1.9343,1.94,1.9479,1.9583,1.9651,1.9752,1.9931,1.9949,2.0009,2.0027,2.0041,2.0058,2.015,2.0176,1.99,1.99,1.99,0,0,1.8803,1.887,1.8937,1.9083,1.9145,1.9254,1.9186,1.9306,1.9386,1.9362,1.9511,1.9555,1.9644,1.9811,1.9887,1.9853,2.0138,2.0057,2.0069,2.0078,2.0166,2.0192,2.0215,1.9908,1.9907,1.9906,0,0,1.8989,1.9053,1.9183,1.9244,1.9337,1.9367,1.9398,1.9487,1.9515,1.9665,1.9647,1.9742,1.9922,1.9984,2.004,2.0242,2.0223,2.0274,2.0369,2.0458,2.048,2.0499,2.0567,2.0592,2.029,2.0291,2.0291,0,1.9067,1.9233,1.9251,1.9372,1.9434,1.9415,1.9544,1.9603,1.9724,1.9766,1.9726,1.9948,2.0007,2.0185,2.0233,2.0281,2.0313,2.0263,2.0476,2.0495,2.0513,2.0578,2.0604,2.0296,2.0295,2.0295,2.0294,0,1.9321,1.9435,1.9529,1.9644,1.9717,1.9842,1.9876,1.9947,1.9948,1.998,2.013,2.0199,2.031,2.0353,2.0357,2.053,2.0505,2.0471,2.0398,2.0545,2.0605,2.0631,2.0304,2.0302,2.03,2.0299,0,0,1.9554,1.9673,1.9707,1.9756,1.9855,1.9942,2.0063,2.0171,2.0229,2.0312,2.0411,2.0561,2.0527,2.0589,2.0599,2.0677,2.0826,2.0632,2.0634,2.0662,2.1016,2.104,2.1069,2.0814,2.0819,2.0823,2.1007,0,1.9747,1.9961,1.9978,2.017,2.0272,2.0253,2.0357,2.0427,2.0459,2.0549,2.0584,2.0688,2.0638,2.0675,2.0752,2.0792,2.0897,2.0779,2.0904,2.0908,2.088,2.1102,2.1129,2.13,2.1032,2.1036,2.1039,0,2.0002,2.0089,2.029,2.0368,2.0411,2.0506,2.0602,2.0689,2.0766,2.0783,2.085,2.0846,2.0966,2.089,2.1053,2.0972,2.1023,2.105,2.1057,2.1068,2.0981,2.1116,2.1355,2.138,2.1077,2.1074,2.1071,0,2.0146,2.0314,2.0455,2.0498,2.0594,2.0659,2.0701,2.0773,2.0834,2.0918,2.0957,2.1054,2.1106,2.118,2.1201,2.1144,2.1361,2.1288,2.1376,2.1376,2.1423,2.1419,2.1671,2.146,2.1459,2.1459,2.1458,0,2.0358,2.0481,2.052,2.0607,2.0742,2.0758,2.0891,2.0929,2.0992,2.1083,2.1072,2.1157,2.1181,2.1269,2.1286,2.1415,2.144,2.1455,2.1458,2.1455,2.1453,2.1488,2.1476,2.1466,2.1464,2.1463,2.1462,0,2.0543,2.0575,2.0726,2.0802,2.0823,2.0919,2.0983,2.1064,2.1093,2.1207,2.1235,2.128,2.1383,2.1411,2.1535,2.1546,2.1697,2.169,2.1671,2.167,2.1756,2.1746,2.2037,2.2074,2.1841,2.1843,2.1845,0,2.0675,2.0769,2.0854,2.0913,2.0958,2.1055,2.1116,2.1134,2.1198,2.1288,2.1358,2.1459,2.154,2.1705,2.1747,2.184,2.1833,2.1928,2.1847,2.1839,2.183,2.1823,2.183,2.1944,2.1946,2.1948,2.195,0,2.0906,2.0915,2.1004,2.1098,2.117,2.1245,2.1317,2.1366,2.1393,2.1464,2.1569,2.1632,2.1756,2.1854,2.1947,2.1988,2.1972,2.1975,2.1999,2.1997,2.1981,2.1987,2.171,2.1968,2.1966,2.1965,2.1964,2.1963,2.1066,2.1146,2.1216,2.1314,2.1369,2.1434,2.1512,2.1549,2.1636,2.1738,2.1743,2.1855,2.1923,2.2045,2.2091,2.2176,2.2148,2.2185,2.2193,2.2202,2.2207,2.1968,2.2194,2.2193,2.2193,2.2192,2.2192,0,2.1292,2.1335,2.1425,2.1523,2.1599,2.1577,2.1653,2.1717,2.1816,2.1881,2.196,2.2076,2.2171,2.2218,2.2311,2.2369,2.2364,2.2393,2.2388,2.2396,2.223,2.2197,2.2395,2.2395,2.2395,2.2395,2.2395,2.2395,2.1419,2.1551,2.1568,2.1725,2.1766,2.1876,2.192,2.1979,2.203,2.216,2.2238,2.2268,2.2324,2.242,2.2503,2.2514,2.2547,2.2579,2.2587,2.243,2.2409,2.2389,2.2359,2.2587,2.2588,2.2746,2.2747,2.2748]}]]